Regional Weather Roundup
Issued by NWS

Home | Current Version | Previous Version | Graphics & Text | Print | Product List | Glossary On
Versions: 1 2 3 4 5 6 7 8 9 10 11 12 13 14 15 16 17 18 19 20 21 22 23 24 25 26 27 28 29 30 31 32 33 34 35 36 37 38 39 40 41 42 43 44 45 46 47 48 49 50
000
ASUS43 KLSX 291507
RWRMO

WEATHER SUMMARY FOR MISSOURI
NATIONAL WEATHER SERVICE SPRINGFIELD MO
1000 AM CDT TUE JUL 29 2014

NOTE: "FAIR" INDICATES FEW OR NO CLOUDS BELOW 12,000 FEET WITH NO
       SIGNIFICANT WEATHER AND/OR OBSTRUCTIONS TO VISIBILITY.
       CURRENT SKY AND/OR WEATHER CONDITIONS ARE NOT AVAILABLE FOR
       CHILLICOTHE AND FARMINGTON.

MOZ001>031-035>038-043-044-053-054-291600-
...NORTHERN AND WESTERN MISSOURI...

CITY           SKY/WX    TMP DP  RH WIND       PRES   REMARKS
KANSAS CTY INT MOSUNNY   73  60  63 NW3       30.19R
KANSAS C DTWN  SUNNY     74  61  63 CALM      30.17S
LEE`S SUMMIT   SUNNY     74  60  61 W5        30.19R
ST JOSEPH      SUNNY     71  61  70 NE6       30.19F
CHILLICOTHE      N/A     74  58  57 CALM      30.19R
KIRKSVILLE     SUNNY     72  59  63 VRB3      30.18S

$$
MOZ066>068-077>081-088>096-101>105-291600-
...SOUTHWEST MISSOURI...

CITY           SKY/WX    TMP DP  RH WIND       PRES   REMARKS
SPRINGFIELD    SUNNY     73  56  54 VRB6      30.19S
JOPLIN         PTSUNNY   74  56  53 SE6       30.19S

$$
MOZ032>034-039>042-045>050-055>058-069>072-291600-
...CENTRAL MISSOURI...

CITY           SKY/WX    TMP DP  RH WIND       PRES   REMARKS
COLUMBIA       SUNNY     73  56  54 N5        30.18S
JEFFERSON CITY SUNNY     73  59  61 W6        30.17S
ROLLA          SUNNY     72  53  51 W6        30.17R
SEDALIA        SUNNY     73  58  59 SW6       30.18S
WHITEMAN AFB   SUNNY     72  49  43 SW10      30.17S
OSAGE BEACH    SUNNY     72  54  53 SW3       30.18S

$$
MOZ051-052-059>065-291600-
...EAST CENTRAL MISSOURI...

CITY           SKY/WX    TMP DP  RH WIND       PRES   REMARKS
ST LOUIS INTL  MOSUNNY   74  54  49 NW9       30.16R
SPIRIT OF STL  SUNNY     71  56  58 SW6       30.15S
ST CHARLES     SUNNY     71  56  58 VRB7      30.14S

$$
MOZ072>076-082>087-097>100-106>115-291600-
...SOUTH CENTRAL AND SOUTHEAST MISSOURI...

CITY           SKY/WX    TMP DP  RH WIND       PRES   REMARKS
CAPE GIRARDEAU SUNNY     73  54  51 N7        30.15R
FARMINGTON     SUNNY     70  52  52 N5        30.19R
POPLAR BLUFF   SUNNY     72  54  53 NE8       30.15R
WEST PLAINS    SUNNY     72  53  51 E5        30.20R

$$


USA.gov is the U.S. government's official web portal to all federal, state and local government web resources and services.